Terminal Aerodrome Forecast
Issued by NWS

Home | Current Version | Previous Version | Text Only | Print | Product List | Glossary On
Versions: 1 2 3 4 5 6 7 8 9 10 11 12 13 14 15 16 17 18 19 20 21
000
FTUS41 KPBZ 142300
TAFFKL
TAF
KFKL 142320Z 1500/1524 VRB03KT P6SM BKN040
     FM150500 VRB03KT P6SM SKC
     FM150900 VRB03KT 2SM BR SCT250
      TEMPO 1510/1513 1/2SM FG BKN001
     FM151400 VRB03KT P6SM SCT250
      AMD LTD TO CLD VIS AND WIND=

USA.gov is the U.S. government's official web portal to all federal, state and local government web resources and services.